FW2439 Weather Reports


time (UTC)temp
F
wind
direction
speed
knots
gust
knots
rain 1hr
in
rain 24hr
in
rain mn
in
humidity
%
barometer
mb
20260831071605 72 223 0.0 0.0 0.00 0.00 0.00 97 1017.6
20260831070052 72 223 0.0 0.0 0.00 0.00 0.00 97 1017.6
20260831064551 72 223 0.0 0.0 0.00 0.00 0.00 97 1017.8
20260831063049 72 223 0.0 0.0 0.00 0.00 0.00 97 1017.9
20260831061547 73 223 0.0 0.0 0.00 0.00 0.00 97 1018.0
20260831060058 73 223 0.0 0.0 0.00 0.00 0.00 97 1017.9
20260831054545 73 223 0.0 0.0 0.00 0.00 0.00 96 1017.9
20260831053053 73 223 0.0 0.0 0.00 0.00 0.00 96 1017.9
20260831051543 73 223 0.0 0.0 0.00 0.00 0.00 95 1017.8
20260831050048 74 223 0.0 0.0 0.00 0.00 0.00 95 1017.8
20260831044537 74 223 0.0 0.0 0.00 0.00 0.00 95 1017.9
20260831043043 75 223 0.0 0.0 0.00 0.00 0.00 94 1017.9
20260831041551 75 223 0.0 0.0 0.00 0.00 0.00 94 1017.9
20260831040036 75 223 0.0 0.0 0.00 0.00 0.00 94 1017.9
20260831034538 76 223 0.0 0.0 0.00 0.00 0.00 93 1017.8
20260831033035 76 223 0.0 0.0 0.00 0.00 0.00 93 1017.8
20260831031540 76 223 0.0 0.0 0.00 0.00 0.00 93 1017.8
20260831030035 76 223 0.0 0.0 0.00 0.00 0.00 93 1017.7
20260831024533 76 223 0.0 0.0 0.00 0.00 0.00 92 1017.5
20260831023033 77 223 0.0 0.0 0.00 0.00 0.00 92 1017.6
20260831021533 77 223 0.0 0.0 0.00 0.00 0.00 91 1017.4
20260831020033 78 223 0.0 0.0 0.00 0.00 0.00 91 1017.2
20260831014537 79 223 0.0 0.0 0.00 0.00 0.00 89 1017.2
20260831013041 79 223 0.0 0.0 0.00 0.00 0.00 88 1017.0
20260831011531 80 223 0.0 0.0 0.00 0.00 0.00 87 1016.8
20260831010030 81 223 0.0 0.0 0.00 0.00 0.00 86 1016.6
20260831004530 82 223 0.0 0.0 0.00 0.00 0.00 84 1016.5
20260831003031 83 223 0.0 0.0 0.00 0.00 0.00 81 1016.5
20260831001535 84 223 0.0 0.0 0.00 0.00 0.00 79 1016.5
20260831000029 85 223 0.0 0.0 0.00 0.00 0.00 78 1016.5
20260830234531 86 223 0.0 0.0 0.00 0.00 0.00 74 1016.4
20260830233028 88 223 0.0 0.9 0.00 0.00 0.00 72 1016.5
20260830231526 89 222 0.0 0.9 0.00 0.00 0.00 71 1016.3
20260830230028 90 253 0.0 1.7 0.00 0.00 0.00 68 1016.3
20260830224526 91 258 0.0 1.7 0.00 0.00 0.00 67 1016.4
20260830223026 92 245 0.0 0.9 0.00 0.00 0.00 68 1016.3
20260830221522 91 250 0.0 1.7 0.00 0.00 0.00 68 1016.3
20260830220022 92 228 0.0 3.5 0.00 0.00 0.00 66 1016.3
20260830214522 92 270 0.0 0.9 0.00 0.00 0.00 68 1016.5
20260830213020 93 245 0.0 1.7 0.00 0.00 0.00 65 1016.4
20260830211520 93 288 0.0 2.6 0.00 0.00 0.00 67 1016.5
20260830210018 92 243 0.9 2.6 0.00 0.00 0.00 65 1016.6
20260830204517 91 94 0.0 1.7 0.00 0.00 0.00 67 1016.8
20260830203023 92 294 0.0 3.5 0.00 0.00 0.00 68 1016.9
20260830201514 93 257 0.9 4.3 0.00 0.00 0.00 64 1017.1
20260830200011 94 359 0.9 3.5 0.00 0.00 0.00 63 1017.3
20260830194510 94 267 0.0 3.5 0.00 0.00 0.00 61 1017.6
20260830193007 93 231 1.7 3.5 0.00 0.00 0.00 58 1017.8
20260830191505 94 354 0.0 2.6 0.00 0.00 0.00 60 1018.1
20260830190100 93 207 0.0 2.6 0.00 0.00 0.00 61 1018.4
20260830184557 91 224 0.0 1.7 0.00 0.00 0.00 66 1018.3
20260830183107 91 238 1.7 3.5 0.00 0.00 0.00 62 1018.3
20260830181553 91 240 1.7 5.2 0.00 0.00 0.00 66 1018.5
20260830180053 91 236 0.9 3.5 0.00 0.00 0.00 65 1018.7
20260830174555 91 104 0.9 3.5 0.00 0.00 0.00 68 1018.9
20260830173106 91 222 2.6 6.1 0.00 0.00 0.00 65 1019.0
20260830171551 90 217 0.9 4.3 0.00 0.00 0.00 70 1019.0
20260830170054 91 212 0.0 3.5 0.00 0.00 0.00 68 1019.2
20260830164552 90 161 5.2 11.3 0.00 0.00 0.00 66 1019.2
20260830163054 90 226 0.0 4.3 0.00 0.00 0.00 68 1019.2
20260830161559 90 223 1.7 5.2 0.00 0.00 0.00 69 1019.4
20260830160039 89 204 0.0 5.2 0.00 0.00 0.00 71 1019.5
20260830154537 88 217 1.7 5.2 0.00 0.00 0.00 72 1019.6
20260830153044 87 248 0.9 4.3 0.00 0.00 0.00 74 1019.6
20260830151531 87 177 0.9 2.6 0.00 0.00 0.00 74 1019.5
20260830150027 86 224 0.9 7.0 0.00 0.00 0.00 78 1019.5
20260830144523 85 226 0.0 4.3 0.00 0.00 0.00 80 1019.6
20260830143021 83 215 0.0 1.7 0.00 0.00 0.00 83 1019.5
20260830141519 80 233 0.0 5.2 0.00 0.00 0.00 89 1019.6
20260830140012 77 190 0.0 1.7 0.00 0.00 0.00 93 1019.6
20260830134512 75 223 0.0 0.9 0.00 0.00 0.00 99 1019.6
20260830133003 72 237 0.0 0.9 0.00 0.00 0.00 100 1019.6
20260830131616 71 273 0.0 0.0 0.00 0.00 0.00 100 1019.5
20260830130054 70 273 0.0 0.0 0.00 0.00 0.00 100 1019.4
20260830124553 69 272 0.0 0.0 0.00 0.00 0.00 100 1019.5
20260830123053 68 273 0.0 0.0 0.00 0.00 0.00 100 1019.3
20260830121553 67 272 0.0 0.0 0.00 0.00 0.00 100 1019.2
20260830120052 67 272 0.0 0.0 0.00 0.00 0.00 99 1019.0
20260830114551 67 273 0.0 0.0 0.00 0.00 0.00 99 1018.8
20260830113047 66 272 0.0 0.0 0.00 0.00 0.00 99 1018.7
20260830111551 66 272 0.0 0.0 0.00 0.00 0.00 99 1018.5
20260830110047 66 272 0.0 0.0 0.00 0.00 0.00 99 1018.3
20260830104545 67 272 0.0 0.0 0.00 0.00 0.00 99 1018.2
20260830103045 67 273 0.0 0.0 0.00 0.00 0.00 99 1018.3
20260830101544 67 273 0.0 0.0 0.00 0.00 0.00 99 1018.2
20260830100043 67 273 0.0 0.0 0.00 0.00 0.00 99 1018.2
20260830094543 67 273 0.0 0.0 0.00 0.00 0.00 99 1018.1
20260830093044 67 273 0.0 0.0 0.00 0.00 0.00 98 1018.1
20260830091546 67 272 0.0 0.0 0.00 0.00 0.00 99 1018.2
20260830090040 67 273 0.0 0.0 0.00 0.00 0.00 98 1018.1
20260830084540 67 273 0.0 0.0 0.00 0.00 0.00 98 1018.1
20260830083051 67 273 0.0 0.0 0.00 0.00 0.00 98 1018.1
20260830081538 67 272 0.0 0.0 0.00 0.00 0.00 98 1018.2
20260830080035 68 273 0.0 0.0 0.00 0.00 0.00 98 1018.1
20260830074541 68 272 0.0 0.0 0.00 0.00 0.00 98 1018.2
20260830073035 68 273 0.0 0.0 0.00 0.00 0.00 98 1018.3